Voltar ao catálogo

FENGYUN 1C DEB

AtivoPO
NORAD 30838·DEBRIS·🇨🇳 China

Lançado May 10, 1999 de Taiyuan Satellite Launch Center

Loading…

Próximas Passagens (próximas 24 horas)

TLE

AtualizadoSource: Space-Track

Época: Sep 14, 2026, 12:59 UTC

1 30838U 99025AVY 26257.54160267  .00005857  00000-0  14493-2 0  9998
2 30838  99.0424 196.5491 0035884  52.8994 307.5470 14.52010797 13075

Acompanhe FENGYUN 1C DEB em tempo real com AllMySat

Download on the App Store